Regional Weather Roundup
Issued by NWS

Home | Current Version | Previous Version | Graphics & Text | Print | Product List | Glossary Off
Versions: 1 2 3 4 5 6 7 8 9 10 11 12 13 14 15 16 17 18 19 20 21 22 23 24 25 26 27 28 29 30 31 32 33 34 35 36 37 38 39 40 41 42 43 44 45 46 47 48 49 50

000
ASUS43 KMKX 231511
RWRWI

WISCONSIN REGIONAL WEATHER ROUNDUP
NATIONAL WEATHER SERVICE MILWAUKEE/SULLIVAN WI
1000 AM CDT TUE MAY 23 2017

NOTE: "FAIR" INDICATES FEW OR NO CLOUDS BELOW 12,000 FEET WITH NO
SIGNIFICANT WEATHER AND/OR OBSTRUCTIONS TO VISIBILITY.

WIZ001-002-006>008-014>016-023>028-231600-
NORTHWEST WISCONSIN

CITY           SKY/WX    TMP DP  RH WIND       PRES   REMARKS
SUPERIOR ARPT  NOT AVBL
ASHLAND        CLOUDY    49  46  90 N5        29.88R
HAYWARD        CLOUDY    50  47  89 NE8       29.85S
SIREN          CLOUDY    52  44  75 CALM      29.85S
CUMBERLAND     CLOUDY    50  43  76 N6        29.84R
RICE LAKE      CLOUDY    51  47  87 N7        29.84S
CHETEK         CLOUDY    51  50  96 CALM      29.83S
LADYSMITH      CLOUDY    54  49  85 NE7       29.85S
EAU CLAIRE     LGT RAIN  50  48  93 NE9       29.81S
MENOMONIE      CLOUDY    52  48  88 N6        29.82S
NEW RICHMOND   CLOUDY    54  46  74 NE8       29.83S
OSCEOLA        CLOUDY    51  51 100 NW5       29.87R
$$

WIZ003>005-009-010-017-018-231600-
NORTH CENTRAL WISCONSIN

CITY           SKY/WX    TMP DP  RH WIND       PRES   REMARKS
MANITOWISH WTR DRIZZLE   47  47 100 CALM      29.85S
ARBOR VITAE    PTSUNNY   49  47  93 SE3       29.85S
WOODRUFF       PTSUNNY   49  47  93 SE3       29.85S
RHINELANDER    CLOUDY    48  46  93 N3        29.86S
EAGLE RIVER    CLOUDY    47  46  95 CALM      29.85F
LAND O LAKES   LGT RAIN  48  46  91 E3        29.88S
PHILLIPS       CLOUDY    53  48  83 E8        29.84S
TOMAHAWK       CLOUDY    46  45  96 CALM      29.85S FOG
MEDFORD        RAIN      48  46  93 NE9       29.81F
MERRILL        CLOUDY    49  48  94 NE6       29.84R
$$

WIZ029-030-035-036-043>047-231600-
CENTRAL WISCONSIN

CITY           SKY/WX    TMP DP  RH WIND       PRES   REMARKS
WAUSAU         CLOUDY    51  44  77 NE7       29.80S
MOSINEE        CLOUDY    52  48  87 NE12      29.80F
MARSHFIELD     CLOUDY    51  46  83 NE15      29.78S
STEVENS POINT  CLOUDY    51  45  79 NE10      29.80R
WAUPACA        CLOUDY    58  49  73 NE6       29.79R
WAUTOMA        CLOUDY    58  54  86 VRB5      29.77S
WISC RAPIDS    CLOUDY    54  48  80 E6        29.79S
CAMP DOUGLAS   CLOUDY    54  54 100 NW5       29.77S
$$

WIZ011>013-019>022-031-037>040-048>050-231600-
NORTHEAST WISCONSIN

CITY           SKY/WX    TMP DP  RH WIND       PRES   REMARKS
ANTIGO         CLOUDY    49  45  87 NE5       29.84R
SHAWANO        CLOUDY    53  47  80 NE9       29.82S
OCONTO         CLOUDY    50  46  86 NE7       29.82S
STURGEON BAY   CLOUDY    52  46  80 NE8       29.83S
GREEN BAY      CLOUDY    54  50  86 NE15      29.80S
MANITOWOC      CLOUDY    54  49  83 CALM      29.80S
APPLETON       CLOUDY    54  46  76 E9        29.77F
CLINTONVILLE   CLOUDY    52  45  76 NE8       29.80F
OSHKOSH        CLOUDY    60  53  77 S6        29.77S
$$

WIZ032>034-041-042-053>061-231600-
SOUTHWEST WISCONSIN

CITY           SKY/WX    TMP DP  RH WIND       PRES   REMARKS
LA CROSSE      CLOUDY    56  53  90 N6        29.76F
SPARTA         CLOUDY    53  51  92 N5        29.77F
VIROQUA        CLOUDY    55  52  92 MISG      29.76F
BOSCOBEL       CLOUDY    56  53  90 SW5       29.77S
PRAIRIE DU CHI CLOUDY    55  51  86 SW3       29.77S
PLATTEVILLE    CLOUDY    55  54  98 W6        29.78S
$$

WIZ056-057-062-063-064-067-068-231600-
SOUTH CENTRAL WISCONSIN

CITY           SKY/WX    TMP DP  RH WIND       PRES   REMARKS
REEDSBURG      CLOUDY    57  55  95 S5        29.75S
BARABOO/DELLS  CLOUDY    57  52  83 SW6       29.76S
LONE ROCK      CLOUDY    56  53  90 W6        29.77R
MINERAL POINT  CLOUDY    54  54 100 SW5       29.77S
MADISON        CLOUDY    59  53  80 S6        29.76S
MIDDLETON      CLOUDY    60  53  79 W5        29.76F
WATERTOWN      CLOUDY    59  56  89 S6        29.77S
MONROE         CLOUDY    57  52  82 SW9       29.77F
JANESVILLE     CLOUDY    61  55  82 SW17      29.77S
$$

WIZ051-052-058>065-066-070>072-231600-
SOUTHEAST WISCONSIN

CITY           SKY/WX    TMP DP  RH WIND       PRES   REMARKS
MILWAUKEE      CLOUDY    62  54  74 SW8       29.78F
WAUKESHA       PTSUNNY   57  54  88 S5        29.79F
MILWAUKEE/TIMM PTSUNNY   61  52  72 SW6       29.79S
RACINE         PTSUNNY   61  53  75 SW6       29.80S
KENOSHA        CLOUDY    60  53  77 SW8       29.79S
FOND DU LAC    CLOUDY    59  52  77 SW5       29.77S
SHEBOYGAN      PTSUNNY   58  54  86 NE6       29.78S
WEST BEND      CLOUDY    59  54  82 SW6       29.78S
JUNEAU         CLOUDY    58  54  85 SE7       29.78R
$$

LSZ147-162-231600-
LAKE SUPERIOR

STATION/POSITION TIME  TEMP    WIND        PRES    WAVE
                       AIR SEA DIR/SP/G            HT/PER
                 (UTC) (F)     (DEG/KT/KT) (MB)    (FT/S)
W MID LAKE BUOY  1450   39 37   20/  8/  8 1012.6R   0
DEVILS ISLAND    1500   42      70/ 11/ 13 1012.8R
PORT WING        1430   43      10/  9/ 10 1011.9R
SAXON HARBOR     1440   44     350/  3/  4 1011.5S
$$

LMZ867-665-643>646-231600-
LAKE MICHIGAN

STATION/POSITION TIME  TEMP    WIND        PRES    WAVE
                       AIR SEA DIR/SP/G            HT/PER
                 (UTC) (F)     (DEG/KT/KT) (MB)    (FT/S)
CHAMBERS ISLAND  1440   47      20/  9/ 12 1010.2F
N MID LAKE BUOY  1450   40 39   50/  6/  8 1011.6S   1/ 4
NORTHPORT PIER   1440   45      70/  2/  4 1010.8S
KEWAUNEE LAKESHO 1442   47      30/  9/ 13 1009.0F
SHEBOYGAN LAKESH 1500   46      30/  7/  8 1008.7S
PORT WASHINGTON  1440   51     140/  2/  5 1009.5S
ATWATER BUOY     1409   50     150/  4/  6 1008.6F
MILWAUKEE LAKESH 1450   58     230/  3/  5   N/A
S MID LAKE BUOY  1450   48 45  180/ 10/ 12 1009.6F   1
KENOSHA   LAKESH 1500   61     220/ 11/ 14 1009.1
$$

TC  - TEMPERATURE IN CELSIUS
VSB - VISIBILITY IN STATUTE MILES
WCI - WIND CHILL INDEX
HX  - HEAT INDEX





USA.gov is the U.S. government's official web portal to all federal, state and local government web resources and services.